Weather History for KMWT - April, 2014

Change the Weather History Date:

Thursday, April 10, 2014

  Actual Average (KHOT) Record (KHOT)
Temperature  
Mean Temperature 71 °F -  
Max Temperature 82 °F 73 °F 87 °F (1978)
Min Temperature 61 °F 46 °F 33 °F (2003)
Cooling Degree Days 6    
Growing Degree Days 21 (Base 50)    
Moisture  
Dew Point 46 °F    
Average Humidity 42    
Maximum Humidity 58    
Minimum Humidity 30    
Precipitation  
Precipitation 0.00 in - - ()
Sea Level Pressure  
Sea Level Pressure 29.94 in    
Wind  
Wind Speed 6 mph (SW)    
Max Wind Speed 13 mph    
Max Gust Speed 26 mph    
Visibility 10 miles    
Events      
Averages and records for this station are not official NWS values.
T = Trace of Precipitation, MM = Missing Value Source: NWS Daily Summary

Daily Weather History Graph

Daily Weather History Graph

Search for Another Location

Airport or City:

Trip Planner

Search our weather history database for the weather conditions in past years. The results will help you decide how hot, cold, wet, or windy it might be!

Date:

Astronomy

Apr. 10, 2014 Rise Set
Actual Time 6:49 AM CDT 7:42 PM CDT
Civil Twilight 6:23 AM CDT 8:08 PM CDT
Nautical Twilight 5:53 AM CDT 8:38 PM CDT
Astronomical Twilight 5:22 AM CDT 9:09 PM CDT
Moon 3:37 PM CDT (4/10) 4:01 AM CDT (4/10)
Length of Visible Light 13h 44m
Length of Day
12h 53m
Waxing Gibbous, 80% of the Moon is Illuminated
Apr 10
Waxing Gibbous
Apr 15
Full
Apr 22
Last Quarter
Apr 29
New
May 6
First Quarter

Hourly Weather History & Observations

Time (CDT) Temp. Dew Point Humidity Pressure Visibility Wind Dir Wind Speed Gust Speed Precip Events Conditions
12:53 AM 64.0 °F 36.0 °F 35% 30.02 in 10.0 mi Variable 4.6 mph - N/A   Clear
1:53 AM 64.0 °F 37.0 °F 37% 30.00 in 10.0 mi Variable 4.6 mph - N/A   Clear
2:53 AM 63.0 °F 39.0 °F 41% 29.98 in 10.0 mi Variable 5.8 mph - N/A   Clear
3:53 AM 63.0 °F 39.0 °F 41% 29.97 in 10.0 mi Variable 3.5 mph - N/A   Clear
4:53 AM 62.1 °F 41.0 °F 46% 29.96 in 10.0 mi Calm Calm - N/A   Clear
5:53 AM 61.0 °F 43.0 °F 52% 29.96 in 10.0 mi Variable 4.6 mph - N/A   Clear
6:53 AM 61.0 °F 45.0 °F 56% 29.97 in 10.0 mi Variable 5.8 mph - N/A   Clear
7:53 AM 61.0 °F 46.0 °F 58% 29.99 in 10.0 mi Variable 5.8 mph - N/A   Clear
8:53 AM 64.0 °F 46.9 °F 54% 29.99 in 10.0 mi SW 9.2 mph 18.4 mph N/A   Clear
9:53 AM 66.9 °F 48.0 °F 51% 29.99 in 10.0 mi Variable 6.9 mph 18.4 mph N/A   Clear
10:53 AM 70.0 °F 45.0 °F 41% 29.99 in 10.0 mi WSW 9.2 mph 19.6 mph N/A   Clear
11:53 AM 75.0 °F 45.0 °F 34% 29.96 in 10.0 mi Variable 6.9 mph - N/A   Clear
12:53 PM 77.0 °F 46.0 °F 33% 29.93 in 10.0 mi Variable 6.9 mph 25.3 mph N/A   Clear
1:53 PM 78.1 °F 46.9 °F 33% 29.91 in 10.0 mi SSW 11.5 mph 25.3 mph N/A   Clear
2:53 PM 80.1 °F 46.9 °F 31% 29.88 in 10.0 mi SW 12.7 mph 24.2 mph N/A   Clear
3:53 PM 81.0 °F 48.0 °F 31% 29.86 in 10.0 mi Variable 6.9 mph 21.9 mph N/A   Clear
4:53 PM 81.0 °F 46.9 °F 30% 29.85 in 10.0 mi SSW 9.2 mph 19.6 mph N/A   Clear
5:53 PM 80.1 °F 48.0 °F 32% 29.84 in 10.0 mi SW 11.5 mph 26.5 mph N/A   Clear
6:53 PM 79.0 °F 48.0 °F 34% 29.86 in 10.0 mi Variable 4.6 mph - N/A   Clear
7:53 PM 75.0 °F 51.1 °F 43% 29.89 in 10.0 mi South 3.5 mph - N/A   Clear
8:53 PM 73.9 °F 51.1 °F 45% 29.92 in 10.0 mi Variable 3.5 mph - N/A   Clear
9:53 PM 72.0 °F 51.1 °F 48% 29.94 in 10.0 mi Variable 3.5 mph - N/A   Clear
10:53 PM 71.1 °F 51.1 °F 49% 29.93 in 10.0 mi Variable 5.8 mph - N/A   Clear
11:53 PM 70.0 °F 50.0 °F 49% 29.94 in 10.0 mi Variable 3.5 mph - N/A   Clear